Flag for U.S.A. Weather past 2 weeks in Escondido, California, U.S.A.

Now
53 °F

Clear.


Feels Like: 53 °F
Forecast: 48 / 73 °F
Wind: No wind

Location: Ramona Airport

Current Time: Dec 22, 2014 at 7:30:38 PM

Latest Report: Dec 22, 2014 at 6:53 PM


Visibility: 10 mi

Pressure: 30.01 "Hg

Humidity: 86%

Dew point: 49 °F

Location of EscondidoLocation

Historic Weather in Escondido — Graph

°F

Escondido temperature yesterday

Maximum temperature yesterday: 65 °F (at 1:53 PM)
Minimum temperature yesterday: 39 °F (at 7:00 AM)
Average temperature yesterday: 50 °F

Past Weeks' High & Low Weather Summary

 TemperatureHumidityPressure
High74 °F (Dec 9, 12:53 PM)100% (Dec 10, 11:53 PM)30.24 "Hg (Dec 10, 11:53 PM)
Low34 °F (Dec 14, 6:59 AM)31% (Dec 9, 12:53 PM)29.89 "Hg (Dec 11, 3:53 PM)
Average51 °F82%30.06 "Hg
* Reported Dec 7 5:53 PM — Dec 22 5:53 PM, Escondido, Weather by CustomWeather, © 2014

Note: Actual official high and low records may vary slightly from our data, if they occured in-between our weather recording intervals... More about our weather records

Advertising

Escondido weather history for previous 24 hours

 ConditionsComfort  
Time TempWeatherWind HumidityBarometerVisibility
5:53 PM
Dec 22
56 °FClear.No wind84%29.98 "Hg10 mi
4:53 PM60 °FClear.6 mph72%29.96 "Hg10 mi
3:53 PM67 °FSunny.7 mph66%29.95 "Hg10 mi
2:53 PM74 °FSunny.7 mph38%29.94 "Hg10 mi
1:53 PM74 °FSunny.8 mph38%29.95 "Hg10 mi
12:53 PM74 °FSunny.5 mph36%29.96 "Hg10 mi
11:53 AM72 °FSunny.7 mph41%29.99 "Hg10 mi
10:53 AM71 °FSunny.7 mph44%30.03 "Hg10 mi
9:53 AM65 °FSunny.No wind59%30.04 "Hg10 mi
8:53 AM57 °FSunny.No wind74%30.04 "Hg10 mi
7:53 AM45 °FSunny.3 mph93%30.04 "Hg9 mi
6:53 AM39 °FFog.3 mph96%30.05 "Hg6 mi
5:53 AM39 °FFog.No wind93%30.04 "Hg5 mi
4:53 AM41 °FClear.No wind93%30.03 "Hg3 mi
3:53 AM39 °FClear.No wind100%30.03 "Hg3 mi
3:04 AM41 °FPassing clouds.No wind96%30.04 "Hg1 mi
2:53 AM42 °FDense fog.3 mph96%30.02 "Hg1 mi
2:01 AM43 °FClear.No wind93%30.05 "Hg2 mi
12:53 AM44 °FClear.3 mph96%30.03 "Hg1 mi
11:53 PM
Dec 21
46 °FClear.No wind93%30.04 "Hg4 mi
10:53 PM47 °FClear.5 mph93%30.05 "Hg2 mi
9:53 PM49 °FClear.5 mph93%30.05 "Hg6 mi
8:53 PM49 °FClear.5 mph93%30.06 "Hg5 mi
7:53 PM49 °FClear.No wind93%30.07 "Hg7 mi
Weather by CustomWeather, © 2014

See weather overviewHow to use our weather pages